IRIDIUM 65 [P]

Last updated on July 3, 2018, 12:20 a.m. UTC

1 25288U 98021D   18183.59875904  .00259665  13416-4  94238-3 0  9994
2 25288  86.4054  64.6409 0349536 171.8358 188.8800 15.33109193 59299

Satellite is not in orbit.